ANA351 RJGG-RJFK

Flight info

Callsign ANA351
Flight time N/A
Altitude 20000
Route ESPAN KEC Y24 SUC Y757 SPICA
Aircraft DH8D/M-SDE2E3FGRY/H

Departure

Time 2026-05-08 16:47
Airport Chubu Centrair International Airport (RJGG)

Arrival

Time N/A
Airport Kagoshima Airport (RJFK)
Time Latitude Longitude Altitude Speed Heading
2026-05-08 15:55 34.86497 136.80931 26 ft 0 kts 78°
2026-05-08 16:39 34.86497 136.80937 26 ft 2 kts 115°
2026-05-08 16:39 34.86488 136.80888 28 ft 14 kts 281°
2026-05-08 16:39 34.86470 136.80723 26 ft 26 kts 261°
2026-05-08 16:39 34.86363 136.80656 28 ft 25 kts 168°
2026-05-08 16:40 34.86144 136.80710 27 ft 39 kts 170°
2026-05-08 16:40 34.85991 136.80745 28 ft 33 kts 169°
2026-05-08 16:40 34.85964 136.80751 28 ft 0 kts 168°
2026-05-08 16:40 34.85909 136.80764 28 ft 22 kts 169°
2026-05-08 16:41 34.85764 136.80799 28 ft 19 kts 169°
2026-05-08 16:41 34.85643 136.80829 27 ft 16 kts 169°
2026-05-08 16:41 34.85539 136.80853 27 ft 14 kts 168°
2026-05-08 16:42 34.85373 136.80894 27 ft 10 kts 169°
2026-05-08 16:42 34.85308 136.80910 28 ft 9 kts 169°
2026-05-08 16:42 34.85250 136.80923 27 ft 8 kts 169°
2026-05-08 16:42 34.85199 136.80935 28 ft 9 kts 168°
2026-05-08 16:43 34.84999 136.80980 28 ft 47 kts 169°
2026-05-08 16:43 34.84720 136.81049 30 ft 39 kts 168°
2026-05-08 16:43 34.84501 136.81104 26 ft 18 kts 169°
2026-05-08 16:43 34.84423 136.81060 25 ft 17 kts 264°
2026-05-08 16:44 34.84420 136.81036 25 ft 0 kts 259°
2026-05-08 16:46 34.84411 136.80973 25 ft 15 kts 261°
2026-05-08 16:46 34.84493 136.80857 25 ft 24 kts 347°
2026-05-08 16:46 34.84747 136.80797 27 ft 67 kts 348°
2026-05-08 16:46 34.85441 136.80630 26 ft 132 kts 349°
2026-05-08 16:47 34.86478 136.80434 225 ft 161 kts 348°
2026-05-08 16:47 34.87664 136.80285 766 ft 176 kts 353°
2026-05-08 16:47 34.88916 136.79895 1217 ft 200 kts 326°
2026-05-08 16:47 34.90153 136.78978 1588 ft 219 kts 343°
2026-05-08 16:48 34.91694 136.78581 1953 ft 239 kts 348°
2026-05-08 16:48 34.93431 136.78398 2317 ft 264 kts
2026-05-08 16:48 34.95166 136.79339 2715 ft 280 kts 28°
2026-05-08 16:48 34.96961 136.80213 3374 ft 273 kts 10°
2026-05-08 16:49 34.98810 136.80257 3627 ft 268 kts 343°
2026-05-08 16:49 35.00405 136.79149 3707 ft 269 kts 310°
2026-05-08 16:49 35.01107 136.77028 3492 ft 279 kts 272°
2026-05-08 16:49 35.00540 136.74798 3546 ft 279 kts 233°
2026-05-08 16:50 34.99023 136.73481 4171 ft 267 kts 205°
2026-05-08 16:50 34.97339 136.72562 4522 ft 266 kts 201°
2026-05-08 16:50 34.95475 136.72521 4879 ft 275 kts 168°
2026-05-08 16:50 34.93639 136.73215 5225 ft 278 kts 164°
2026-05-08 16:51 34.92427 136.73730 5446 ft 279 kts 163°
2026-05-08 16:51 34.90594 136.74529 5814 ft 281 kts 163°
2026-05-08 16:51 34.88741 136.75335 6173 ft 283 kts 163°
2026-05-08 16:51 34.86249 136.76386 6629 ft 285 kts 165°
2026-05-08 16:52 34.85001 136.76893 6873 ft 284 kts 166°
2026-05-08 16:52 34.83141 136.77480 7489 ft 270 kts 177°
2026-05-08 16:52 34.81299 136.77628 8131 ft 261 kts 185°
2026-05-08 16:52 34.79506 136.77551 8778 ft 255 kts 190°
2026-05-08 16:53 34.76040 136.77024 10084 ft 247 kts 195°
2026-05-08 16:53 34.74348 136.76695 10690 ft 245 kts 196°
2026-05-08 16:53 34.72700 136.76248 11304 ft 240 kts 202°
2026-05-08 16:54 34.71096 136.75672 11934 ft 243 kts 201°
2026-05-08 16:54 34.69468 136.75161 12576 ft 240 kts 201°
2026-05-08 16:54 34.67859 136.74628 13234 ft 239 kts 202°
2026-05-08 16:54 34.66269 136.74101 13874 ft 239 kts 201°
2026-05-08 16:55 34.64661 136.73577 14467 ft 239 kts 201°
2026-05-08 16:55 34.63053 136.73049 15074 ft 240 kts 202°
2026-05-08 16:55 34.61443 136.72520 15692 ft 240 kts 202°
2026-05-08 16:55 34.59825 136.71989 16323 ft 241 kts 202°
2026-05-08 16:56 34.58203 136.71457 16969 ft 242 kts 202°
2026-05-08 16:56 34.56554 136.70917 17637 ft 243 kts 202°
2026-05-08 16:56 34.54905 136.70375 18303 ft 248 kts 202°
2026-05-08 16:56 34.53218 136.69823 18894 ft 255 kts 202°
2026-05-08 16:57 34.51485 136.69257 19453 ft 263 kts 202°
2026-05-08 16:57 34.49670 136.68658 19752 ft 279 kts 202°
2026-05-08 16:57 34.47740 136.68031 19904 ft 292 kts 202°
2026-05-08 16:57 34.45757 136.67384 19970 ft 300 kts 202°
2026-05-08 16:58 34.43714 136.66715 19993 ft 307 kts 201°
2026-05-08 16:58 34.41631 136.66037 20009 ft 313 kts 201°
2026-05-08 16:58 34.39485 136.65335 20012 ft 317 kts 201°
2026-05-08 16:58 34.37343 136.64637 20001 ft 319 kts 201°
2026-05-08 16:59 34.35194 136.63936 19999 ft 321 kts 201°
2026-05-08 16:59 34.33036 136.63233 20002 ft 322 kts 201°
2026-05-08 16:59 34.30868 136.62526 20005 ft 323 kts 201°
2026-05-08 16:59 34.28691 136.61818 20000 ft 325 kts 201°
2026-05-08 17:00 34.26473 136.61095 19999 ft 325 kts 201°
2026-05-08 17:00 34.24285 136.60385 19997 ft 326 kts 201°
2026-05-08 17:00 34.22122 136.59616 19994 ft 322 kts 206°
2026-05-08 17:00 34.20119 136.58450 19990 ft 319 kts 214°
2026-05-08 17:01 34.18203 136.57020 19994 ft 317 kts 218°
2026-05-08 17:01 34.16370 136.55479 19994 ft 317 kts 219°
2026-05-08 17:01 34.14585 136.53915 19994 ft 317 kts 220°
2026-05-08 17:01 34.12857 136.52278 19989 ft 314 kts 225°
2026-05-08 17:02 34.11264 136.50473 19993 ft 314 kts 225°
2026-05-08 17:02 34.09615 136.48737 19992 ft 315 kts 225°
2026-05-08 17:02 34.07989 136.46960 19994 ft 315 kts 225°
2026-05-08 17:02 34.06352 136.45204 19989 ft 316 kts 225°
2026-05-08 17:03 34.04712 136.43433 19994 ft 316 kts 225°
2026-05-08 17:03 34.03049 136.41642 19996 ft 316 kts 225°
2026-05-08 17:03 34.01410 136.39877 20000 ft 317 kts 225°
2026-05-08 17:03 33.99762 136.38102 19992 ft 317 kts 225°
2026-05-08 17:04 33.98116 136.36332 19989 ft 317 kts 225°
2026-05-08 17:04 33.96469 136.34560 19993 ft 317 kts 225°
2026-05-08 17:04 33.94801 136.32768 19996 ft 317 kts 225°
2026-05-08 17:04 33.93151 136.30995 19985 ft 318 kts 225°
2026-05-08 17:05 33.91502 136.29226 19995 ft 317 kts 225°
2026-05-08 17:05 33.89852 136.27454 20001 ft 318 kts 225°
2026-05-08 17:05 33.88179 136.25660 20000 ft 318 kts 225°
2026-05-08 17:05 33.86525 136.23887 19999 ft 318 kts 225°
2026-05-08 17:06 33.84873 136.22117 19999 ft 318 kts 225°
2026-05-08 17:06 33.83195 136.20323 20320 ft 316 kts 227°
2026-05-08 17:06 33.81575 136.18569 20156 ft 311 kts 228°
2026-05-08 17:06 33.79957 136.16861 20076 ft 307 kts 227°
2026-05-08 17:07 33.78376 136.15170 20034 ft 303 kts 228°
2026-05-08 17:07 33.76802 136.13488 19808 ft 303 kts 224°
2026-05-08 17:07 33.75213 136.11804 19907 ft 305 kts 225°
2026-05-08 17:07 33.73632 136.10091 19949 ft 308 kts 225°
2026-05-08 17:08 33.72016 136.08378 19986 ft 311 kts 225°
2026-05-08 17:08 33.70392 136.06641 19999 ft 313 kts 225°
2026-05-08 17:08 33.68755 136.04899 20004 ft 315 kts 225°
2026-05-08 17:08 33.67115 136.03153 20015 ft 316 kts 225°
2026-05-08 17:09 33.65465 136.01395 20008 ft 317 kts 225°
2026-05-08 17:09 33.63808 135.99633 20009 ft 318 kts 225°
2026-05-08 17:09 33.62150 135.97871 20013 ft 319 kts 225°
2026-05-08 17:09 33.60490 135.96109 20015 ft 319 kts 225°
2026-05-08 17:10 33.58810 135.94320 20009 ft 318 kts 225°
2026-05-08 17:10 33.57159 135.92570 20014 ft 317 kts 225°
2026-05-08 17:10 33.55511 135.90820 20008 ft 316 kts 225°
2026-05-08 17:10 33.53870 135.89080 20013 ft 315 kts 225°
2026-05-08 17:11 33.52225 135.87336 20010 ft 315 kts 225°
2026-05-08 17:11 33.50592 135.85606 20015 ft 314 kts 225°
2026-05-08 17:11 33.48959 135.83876 20014 ft 313 kts 225°
2026-05-08 17:11 33.47363 135.82112 20015 ft 310 kts 231°
2026-05-08 17:12 33.46093 135.80050 20019 ft 307 kts 240°
2026-05-08 17:12 33.45066 135.77807 20018 ft 306 kts 245°
2026-05-08 17:12 33.44192 135.75482 20022 ft 307 kts 248°
2026-05-08 17:12 33.43380 135.73116 20023 ft 307 kts 249°
2026-05-08 17:13 33.42691 135.70700 20026 ft 307 kts 255°
2026-05-08 17:13 33.42162 135.68230 20024 ft 307 kts 253°
2026-05-08 17:13 33.41756 135.66609 20023 ft 306 kts 253°
2026-05-08 17:13 33.41185 135.64152 20031 ft 307 kts 254°
2026-05-08 17:14 33.40603 135.61694 20029 ft 307 kts 253°
2026-05-08 17:14 33.40022 135.59239 20033 ft 307 kts 254°
2026-05-08 17:14 33.39444 135.56781 20028 ft 307 kts 253°
2026-05-08 17:14 33.38861 135.54328 20032 ft 307 kts 253°
2026-05-08 17:15 33.38281 135.51871 20034 ft 306 kts 253°
2026-05-08 17:15 33.37700 135.49421 20033 ft 306 kts 253°
2026-05-08 17:15 33.37174 135.46957 20034 ft 306 kts 255°
2026-05-08 17:15 33.36546 135.44528 20037 ft 305 kts 251°
2026-05-08 17:16 33.35922 135.42106 20037 ft 305 kts 253°
2026-05-08 17:16 33.35300 135.39690 20037 ft 304 kts 252°
2026-05-08 17:16 33.34667 135.37265 20036 ft 305 kts 252°
2026-05-08 17:16 33.34044 135.34849 20042 ft 304 kts 252°
2026-05-08 17:17 33.33413 135.32424 20039 ft 304 kts 252°
2026-05-08 17:17 33.32787 135.30008 20038 ft 304 kts 252°
2026-05-08 17:17 33.32158 135.27589 20041 ft 304 kts 252°
2026-05-08 17:17 33.31539 135.25210 20047 ft 304 kts 252°
2026-05-08 17:18 33.30911 135.22794 20046 ft 304 kts 252°
2026-05-08 17:18 33.30284 135.20388 20045 ft 303 kts 252°
2026-05-08 17:18 33.29655 135.17977 20044 ft 303 kts 252°
2026-05-08 17:18 33.29025 135.15566 20050 ft 303 kts 252°
2026-05-08 17:19 33.28396 135.13157 20043 ft 303 kts 252°
2026-05-08 17:19 33.27768 135.10755 20045 ft 303 kts 252°
2026-05-08 17:19 33.27139 135.08348 20044 ft 303 kts 252°
2026-05-08 17:19 33.26517 135.05977 20053 ft 303 kts 252°
2026-05-08 17:20 33.25863 135.03554 20045 ft 302 kts 251°
2026-05-08 17:20 33.25202 135.01168 20048 ft 302 kts 254°
2026-05-08 17:20 33.24665 134.98785 20053 ft 302 kts 253°
2026-05-08 17:20 33.24061 134.96377 20049 ft 302 kts 253°
2026-05-08 17:21 33.23490 134.93968 20048 ft 302 kts 253°
2026-05-08 17:21 33.22904 134.91565 20051 ft 302 kts 253°
2026-05-08 17:21 33.22323 134.89159 20050 ft 302 kts 253°
2026-05-08 17:21 33.21738 134.86747 20052 ft 301 kts 253°
2026-05-08 17:22 33.21154 134.84343 20046 ft 301 kts 253°
2026-05-08 17:22 33.20572 134.81943 20049 ft 301 kts 253°
2026-05-08 17:22 33.19987 134.79542 20053 ft 301 kts 253°
2026-05-08 17:22 33.19404 134.77142 20056 ft 301 kts 253°
2026-05-08 17:23 33.18816 134.74728 20050 ft 301 kts 253°
2026-05-08 17:23 33.18237 134.72353 20051 ft 300 kts 253°
2026-05-08 17:23 33.17653 134.69958 20052 ft 300 kts 253°
2026-05-08 17:23 33.17066 134.67565 20055 ft 300 kts 253°
2026-05-08 17:24 33.16482 134.65166 20055 ft 300 kts 253°
2026-05-08 17:24 33.15898 134.62780 20055 ft 300 kts 253°
2026-05-08 17:24 33.15313 134.60386 20051 ft 300 kts 253°
2026-05-08 17:24 33.14727 134.57998 20056 ft 300 kts 253°
2026-05-08 17:25 33.14142 134.55605 20053 ft 300 kts 253°
2026-05-08 17:25 33.13563 134.53246 20052 ft 300 kts 253°
2026-05-08 17:25 33.12977 134.50861 20049 ft 300 kts 253°
2026-05-08 17:25 33.12391 134.48476 20053 ft 299 kts 253°
2026-05-08 17:26 33.11804 134.46091 20058 ft 299 kts 253°
2026-05-08 17:26 33.11216 134.43702 20054 ft 299 kts 253°
2026-05-08 17:26 33.10630 134.41324 20056 ft 299 kts 253°
2026-05-08 17:26 33.10043 134.38944 20055 ft 299 kts 253°
2026-05-08 17:27 33.09456 134.36565 20055 ft 299 kts 253°
2026-05-08 17:27 33.08866 134.34179 20057 ft 299 kts 253°
2026-05-08 17:27 33.08277 134.31800 20059 ft 299 kts 253°
2026-05-08 17:27 33.07698 134.29457 20058 ft 299 kts 253°
2026-05-08 17:28 33.07088 134.27090 20062 ft 298 kts 252°
2026-05-08 17:28 33.06507 134.24716 20063 ft 298 kts 255°
2026-05-08 17:28 33.05942 134.22335 20058 ft 298 kts 253°
2026-05-08 17:28 33.05359 134.19957 20059 ft 298 kts 254°
2026-05-08 17:29 33.04790 134.17578 20061 ft 298 kts 254°
2026-05-08 17:29 33.04214 134.15211 20060 ft 298 kts 254°
2026-05-08 17:29 33.03639 134.12833 20060 ft 298 kts 254°
2026-05-08 17:29 33.03054 134.10427 20061 ft 298 kts 254°
2026-05-08 17:30 33.02479 134.08055 20062 ft 298 kts 254°
2026-05-08 17:30 33.01903 134.05686 20062 ft 298 kts 254°
2026-05-08 17:30 33.01326 134.03312 20062 ft 298 kts 254°
2026-05-08 17:30 33.00749 134.00943 20066 ft 298 kts 254°
2026-05-08 17:31 33.00171 133.98571 20063 ft 298 kts 254°
2026-05-08 17:31 32.99593 133.96201 20064 ft 298 kts 254°
2026-05-08 17:31 32.99014 133.93831 20061 ft 298 kts 254°
2026-05-08 17:31 32.98443 133.91495 20068 ft 298 kts 254°
2026-05-08 17:32 32.97865 133.89131 20067 ft 298 kts 254°
2026-05-08 17:32 32.97278 133.86735 20066 ft 298 kts 254°
2026-05-08 17:32 32.96703 133.84386 20066 ft 298 kts 254°
2026-05-08 17:32 32.96124 133.82023 20067 ft 298 kts 254°
2026-05-08 17:33 32.95534 133.79621 20068 ft 298 kts 254°
2026-05-08 17:33 32.94960 133.77287 20064 ft 298 kts 254°
2026-05-08 17:33 32.94378 133.74921 20065 ft 298 kts 254°
2026-05-08 17:33 32.93797 133.72559 20067 ft 298 kts 254°
2026-05-08 17:34 32.93214 133.70192 20065 ft 297 kts 254°
2026-05-08 17:34 32.92630 133.67826 20063 ft 297 kts 254°
2026-05-08 17:34 32.92049 133.65469 20068 ft 297 kts 254°
2026-05-08 17:34 32.91465 133.63108 20073 ft 297 kts 254°
2026-05-08 17:35 32.90882 133.60748 20074 ft 297 kts 254°
2026-05-08 17:35 32.90296 133.58381 20069 ft 297 kts 254°
2026-05-08 17:35 32.89711 133.56018 20071 ft 297 kts 254°
2026-05-08 17:35 32.89126 133.53663 20073 ft 297 kts 254°
2026-05-08 17:36 32.88540 133.51297 20070 ft 297 kts 254°
2026-05-08 17:36 32.87954 133.48940 20070 ft 297 kts 254°
2026-05-08 17:36 32.87368 133.46579 20070 ft 297 kts 254°
2026-05-08 17:36 32.86781 133.44224 20075 ft 297 kts 254°
2026-05-08 17:37 32.86194 133.41862 20073 ft 297 kts 254°
2026-05-08 17:37 32.85606 133.39504 20077 ft 297 kts 254°
2026-05-08 17:37 32.85019 133.37152 20076 ft 297 kts 254°
2026-05-08 17:37 32.84430 133.34793 20081 ft 297 kts 254°
2026-05-08 17:38 32.83841 133.32438 20080 ft 297 kts 254°
2026-05-08 17:38 32.83252 133.30082 20076 ft 297 kts 254°
2026-05-08 17:38 32.82662 133.27726 20075 ft 297 kts 254°
2026-05-08 17:38 32.82072 133.25373 20082 ft 297 kts 254°
2026-05-08 17:39 32.81483 133.23020 20080 ft 297 kts 254°
2026-05-08 17:39 32.80893 133.20671 20075 ft 297 kts 254°
2026-05-08 17:39 32.80302 133.18318 20078 ft 297 kts 254°
2026-05-08 17:39 32.79709 133.15963 20079 ft 297 kts 254°
2026-05-08 17:40 32.79119 133.13616 20081 ft 297 kts 254°
2026-05-08 17:40 32.78527 133.11267 20079 ft 296 kts 254°
2026-05-08 17:40 32.77943 133.08952 20076 ft 296 kts 254°
2026-05-08 17:40 32.77344 133.06574 20084 ft 296 kts 254°
2026-05-08 17:41 32.76757 133.04260 20084 ft 296 kts 253°
2026-05-08 17:41 32.76031 133.01936 20160 ft 296 kts 250°
2026-05-08 17:41 32.75203 132.99739 20088 ft 295 kts 248°
2026-05-08 17:41 32.74332 132.97539 20088 ft 294 kts 248°
2026-05-08 17:42 32.73432 132.95363 20092 ft 294 kts 244°
2026-05-08 17:42 32.72344 132.93303 20086 ft 294 kts 242°
2026-05-08 17:42 32.71298 132.91222 20086 ft 293 kts 243°
2026-05-08 17:42 32.70242 132.89157 20083 ft 293 kts 242°
2026-05-08 17:43 32.69183 132.87087 20082 ft 293 kts 243°
2026-05-08 17:43 32.68133 132.85024 20086 ft 293 kts 243°
2026-05-08 17:43 32.67076 132.82958 20085 ft 293 kts 243°
2026-05-08 17:43 32.66019 132.80889 20085 ft 293 kts 243°
2026-05-08 17:44 32.64961 132.78821 20083 ft 293 kts 243°
2026-05-08 17:44 32.63905 132.76758 20081 ft 293 kts 243°
2026-05-08 17:44 32.62848 132.74694 20080 ft 293 kts 243°
2026-05-08 17:44 32.61789 132.72628 20081 ft 293 kts 243°
2026-05-08 17:45 32.60732 132.70566 20080 ft 293 kts 243°
2026-05-08 17:45 32.59670 132.68495 20080 ft 293 kts 243°
2026-05-08 17:45 32.58610 132.66430 20081 ft 293 kts 243°
2026-05-08 17:45 32.57547 132.64361 20082 ft 293 kts 243°
2026-05-08 17:46 32.56485 132.62292 20086 ft 294 kts 243°
2026-05-08 17:46 32.55424 132.60230 20087 ft 294 kts 243°
2026-05-08 17:46 32.54371 132.58183 20085 ft 294 kts 243°
2026-05-08 17:46 32.53306 132.56115 20089 ft 294 kts 243°
2026-05-08 17:47 32.52243 132.54049 20089 ft 294 kts 243°
2026-05-08 17:47 32.51175 132.51976 20088 ft 294 kts 243°
2026-05-08 17:47 32.50111 132.49913 20087 ft 294 kts 243°
2026-05-08 17:47 32.49401 132.48537 20090 ft 294 kts 243°
2026-05-08 17:48 32.47973 132.45769 20090 ft 294 kts 243°
2026-05-08 17:48 32.46903 132.43697 20087 ft 294 kts 243°
2026-05-08 17:48 32.45834 132.41628 20086 ft 295 kts 243°
2026-05-08 17:48 32.44766 132.39563 20088 ft 295 kts 243°
2026-05-08 17:49 32.43697 132.37496 20086 ft 295 kts 243°
2026-05-08 17:49 32.42626 132.35426 20092 ft 295 kts 243°
2026-05-08 17:49 32.41554 132.33357 20093 ft 295 kts 243°
2026-05-08 17:49 32.40482 132.31289 20090 ft 295 kts 243°
2026-05-08 17:50 32.39409 132.29217 20085 ft 295 kts 243°
2026-05-08 17:50 32.38337 132.27151 20087 ft 295 kts 243°
2026-05-08 17:50 32.37264 132.25085 20092 ft 295 kts 243°
2026-05-08 17:50 32.36192 132.23019 20088 ft 295 kts 243°
2026-05-08 17:51 32.35114 132.20944 20090 ft 295 kts 243°
2026-05-08 17:51 32.34040 132.18877 20087 ft 295 kts 243°
2026-05-08 17:51 32.32963 132.16804 20088 ft 295 kts 243°
2026-05-08 17:51 32.31885 132.14733 20090 ft 295 kts 243°
2026-05-08 17:52 32.30807 132.12661 20089 ft 296 kts 243°
2026-05-08 17:52 32.29731 132.10597 20090 ft 296 kts 243°
2026-05-08 17:52 32.27574 132.06458 20088 ft 296 kts 243°
2026-05-08 17:53 32.26859 132.05087 20094 ft 296 kts 243°
2026-05-08 17:53 32.25430 132.02349 20089 ft 296 kts 243°
2026-05-08 17:53 32.24368 132.00322 20088 ft 268 kts 243°
2026-05-08 17:53 32.23462 131.98592 20063 ft 234 kts 244°
2026-05-08 17:54 32.22914 131.97539 20045 ft 214 kts 244°
2026-05-08 17:54 32.22178 131.96131 19939 ft 191 kts 244°
2026-05-08 17:54 32.21492 131.94805 19488 ft 187 kts 244°
2026-05-08 17:54 32.20812 131.93507 19064 ft 184 kts 244°
2026-05-08 17:55 32.20144 131.92237 18645 ft 180 kts 244°
2026-05-08 17:55 32.19493 131.90993 18234 ft 177 kts 245°
2026-05-08 17:55 32.18851 131.89768 17776 ft 174 kts 245°
2026-05-08 17:55 32.18219 131.88563 17325 ft 172 kts 245°
2026-05-08 17:56 32.17595 131.87372 16874 ft 169 kts 245°
2026-05-08 17:56 32.16978 131.86195 16447 ft 168 kts 245°
2026-05-08 17:56 32.16369 131.85033 16026 ft 166 kts 245°
2026-05-08 17:56 32.15761 131.83874 15599 ft 165 kts 245°
2026-05-08 17:57 32.15158 131.82725 15186 ft 164 kts 245°
2026-05-08 17:57 32.14557 131.81580 14775 ft 164 kts 245°
2026-05-08 17:57 32.13958 131.80438 14377 ft 163 kts 245°
2026-05-08 17:57 32.13361 131.79302 13979 ft 163 kts 245°
2026-05-08 17:58 32.12763 131.78164 13548 ft 163 kts 245°
2026-05-08 17:58 32.12167 131.77027 13104 ft 163 kts 245°
2026-05-08 17:58 32.11568 131.75886 12673 ft 163 kts 245°
2026-05-08 17:58 32.10967 131.74747 12245 ft 164 kts 244°
2026-05-08 17:59 32.10357 131.73586 11818 ft 164 kts 244°
2026-05-08 17:59 32.09753 131.72435 11399 ft 165 kts 244°
2026-05-08 17:59 32.09154 131.71299 10980 ft 166 kts 244°
2026-05-08 17:59 32.08544 131.70139 10579 ft 166 kts 244°
2026-05-08 18:00 32.07932 131.68978 10169 ft 167 kts 244°
2026-05-08 18:00 32.06697 131.66632 9330 ft 173 kts 243°
2026-05-08 18:00 32.06029 131.65367 9261 ft 181 kts 243°
2026-05-08 18:01 32.05355 131.64091 9571 ft 192 kts 243°
2026-05-08 18:01 32.04624 131.62688 9898 ft 210 kts 243°
2026-05-08 18:01 32.03818 131.61172 10207 ft 225 kts 242°
2026-05-08 18:01 32.03018 131.59671 10400 ft 201 kts 243°
2026-05-08 18:02 32.02325 131.58360 10362 ft 176 kts 244°
2026-05-08 18:02 32.01719 131.57203 10328 ft 160 kts 244°
2026-05-08 18:02 32.01139 131.56096 10325 ft 157 kts 244°
2026-05-08 18:02 32.00567 131.55011 10336 ft 154 kts 244°
2026-05-08 18:03 32.00002 131.53947 10348 ft 152 kts 244°
2026-05-08 18:03 31.99447 131.52897 10358 ft 150 kts 244°
2026-05-08 18:03 31.98898 131.51859 10367 ft 149 kts 244°
2026-05-08 18:03 31.98355 131.50832 10371 ft 148 kts 244°
2026-05-08 18:04 31.97812 131.49807 10373 ft 147 kts 245°
2026-05-08 18:04 31.97276 131.48793 10380 ft 146 kts 245°
2026-05-08 18:04 31.96739 131.47780 10382 ft 145 kts 245°
2026-05-08 18:04 31.96206 131.46773 10376 ft 145 kts 245°
2026-05-08 18:05 31.95674 131.45769 10379 ft 144 kts 245°
2026-05-08 18:05 31.95145 131.44770 10383 ft 144 kts 245°
2026-05-08 18:05 31.94614 131.43764 10338 ft 148 kts 245°
2026-05-08 18:05 31.94045 131.42689 10132 ft 161 kts 244°
2026-05-08 18:06 31.93427 131.41544 9939 ft 170 kts 243°